Location: Newark
(46.3167°N, 7.8500°E)
Time: 18:20:21
(UTC+00:00)

Envisat - Visible Passes

Search period start: 17 February 2020 00:00
Search period end: 27 February 2020 00:00
Orbit: 764 x 766 km, 98.1° (Epoch: 17 February)

Date Brightness Start Highest point End Pass type
(mag) Time Alt. Az. Time Alt. Az. Time Alt. Az.
17 Feb 5.3 05:19:42 10° NE 05:24:03 28° E 05:28:23 10° SSE visible
17 Feb 5.6 18:16:38 10° SW 18:20:42 24° W 18:24:47 10° NW visible
18 Feb 6.4 04:44:27 10° ENE 04:46:52 13° E 04:49:16 10° ESE visible
18 Feb 4.1 17:38:46 10° S 17:43:40 50° W 17:48:38 10° NNW visible
19 Feb 4.3 05:44:47 10° NNE 05:49:42 47° E 05:54:35 10° S visible
19 Feb 6.3 18:43:50 10° WSW 18:46:29 14° W 18:49:09 10° NW visible
20 Feb 5.7 05:08:41 10° NE 05:12:39 23° E 05:16:37 10° SE visible
20 Feb 5.2 18:04:54 10° SSW 18:09:19 30° W 18:13:45 10° NW visible
21 Feb 6.7 04:34:41 10° ENE 04:35:24 10° E 04:36:07 10° E visible
21 Feb 3.7 17:27:19 10° S 17:32:20 62° W 17:37:24 10° NNW visible
22 Feb 4.8 05:33:37 10° NNE 05:38:21 37° E 05:43:03 10° SSE visible
22 Feb 6.1 18:31:39 10° SW 18:35:03 18° W 18:38:27 10° NW visible
23 Feb 6.1 04:57:46 10° NE 05:01:14 18° E 05:04:41 10° SE visible
23 Feb 4.8 17:53:16 10° SSW 17:57:56 37° W 18:02:38 10° NNW visible
25 Feb 5.2 05:22:29 10° NNE 05:26:58 30° E 05:31:25 10° SSE visible
25 Feb 5.8 18:19:43 10° SW 18:23:37 22° W 18:27:33 10° NW visible
26 Feb 6.3 04:47:02 10° NE 04:49:48 15° E 04:52:33 10° ESE visible
26 Feb 4.3 17:41:43 10° S 17:46:34 46° W 17:51:28 10° NNW visible
